Location: Unspecified
(0.0000°N, 0.0000°E)
Time: 22:39:56
(UTC+00:00)

Alouette 1 - Pass Details

Date: 24 October 2021
Orbit: 985 x 1019 km, 80.5° (Epoch: 07 December)

Event Time Altitude Azimuth Distance (km) Brightness Sun altitude
Rises 19:11:53 0° 338° (NNW) 3,737 9.2 -21.4°
Reaches altitude 10° 19:14:36 10° 331° (NNW) 2,785 8.6 -22.1°
Maximum altitude 19:20:29 38° 265° (W) 1,481 7.5 -23.5°
Drops below altitude 10° 19:26:21 10° 198° (SSW) 2,774 8.7 -25.0°
Sets 19:29:04 0° 190° (S) 3,720 9.3 -25.6°
